Tracking 30995 objects as of 7-Jul-2025
HD Live streaming from Space Station
objects crossing your sky now

CZ-4C DEB

Track CZ-4C DEB now!
10-day predictions


NORAD ID: 39231
Int'l Code: 2013-037H
Perigee: 668.1 km
Apogee: 1,014.0 km
Inclination: 98.1 °
Period: 101.6 minutes
Semi major axis: 7212 km
RCS: Unknown
Launch date: July 19, 2013
Source: People's Republic of China (PRC)
Launch site: Taiyaun Space Center, China (TSC)

Note: This is SATELLITE DEBRIS
Your satellite tracking list
Your tracking list is empty




NASA's NSSDC Master Catalog

Two Line Element Set (TLE):
1 39231U 13037H   25186.32125265  .00001088  00000-0  41906-3 0  9990
2 39231  98.0915 224.6658 0239858 158.9259 202.2008 14.17471325611365
Source of the keplerian elements: AFSPC